(202094) = 2000 YR83 = 2004 TM18

Discovered at Goodricke-Pigott on 2004-10-12 by R. A. Tucker.

Orbit

Orbit type: Main Belt

Note: WebGL enabled browser required.

epoch2024-03-31.0
epoch JD2460400.5
perihelion date2021-08-20.22504
perihelion JD2459446.72504
argument of perihelion (°)253.86434
ascending node (°)104.85806
inclination (°)12.48070
eccentricity0.2030124
perihelion distance (AU)2.1074183
Tisserand w.r.t. Jupiter3.3
ΔV w.r.t. Earth (km/sec)9.9
semimajor axis (AU)2.6442298
mean anomaly (°)218.62558
mean daily motion (°/day)0.22922140
aphelion distance (AU)3.181
period (years)4.3
P-vector [x]0.97781017
P-vector [y]0.05678025
P-vector [z]-0.20165135
Q-vector [x]0.01594872
Q-vector [y]0.93959935
Q-vector [z]0.34190450
absolute magnitude15.69
phase slope0.15
uncertainty0
referenceMPEC 2024-F28
observations used806
oppositions17
arc length (days)9043
first opposition used1999
last opposition used2024
residual rms (arc-secs)0.71
perturbers coarse indicatorM-v
perturbers precise indicator003Ek
first observation date used1999-06-15.0
last observation date used2024-03-18.0
computer nameMPCLINUX
JD of orbit computation2456670.813526
perihelion JD uncertainty (days)1.0311E-04
argument of perihelion uncertainty (°)3.7283E-05
ascending node uncertainty (°)2.7197E-05
inclination uncertainty (°)7.5781E-06
eccentricity uncertainty 5.2783E-08
perihelion distance uncertainty (AU)1.4826E-07
Minimum Orbit Intersection Distances (in AU)
for orbit epoch: 2460400.5, reference: E2024-F78
Mercury1.73686
Venus1.39295
Earth1.14224
Mars0.78213
Jupiter2.35399
Saturn6.21073
Uranus15.3343
Neptune27.3408

Observations

823 total observations over interval: 1999 06 15.35552 – 2024 03 18.602726
These data are available for download (format description).

Date (UT) J2000 RA J2000 Dec Magn Location Ref
1999 06 15.35552 19 22 10.41 -19 53 57.2 18.8   704 – Lincoln Laboratory ETS, New Mexico MPS 118511
1999 06 15.36753 19 22 09.89 -19 54 00.6 19.3   704 – Lincoln Laboratory ETS, New Mexico MPS 118511
1999 06 15.37976 19 22 09.52 -19 54 04.1 18.9   704 – Lincoln Laboratory ETS, New Mexico MPS 118511
1999 06 15.40405 19 22 08.55 -19 54 13.9 19.1   704 – Lincoln Laboratory ETS, New Mexico MPS 118511
1999 07 16.22868 18 54 58.00 -23 37 43.6 18.5   704 – Lincoln Laboratory ETS, New Mexico MPS 118511
1999 07 16.24144 18 54 57.18 -23 37 47.9 18.7   704 – Lincoln Laboratory ETS, New Mexico MPS 118511
1999 07 16.25421 18 54 56.29 -23 37 54.5 18.8   704 – Lincoln Laboratory ETS, New Mexico MPS 118511
1999 07 16.26697 18 54 55.63 -23 37 59.7 18.3   704 – Lincoln Laboratory ETS, New Mexico MPS 118511
2000 12 30.29201 06 02 52.02 +19 27 58.0 19.3   704 – Lincoln Laboratory ETS, New Mexico MPS 24245
2000 12 30.30686 06 02 51.05 +19 28 01.3 19.4   704 – Lincoln Laboratory ETS, New Mexico MPS 24245
2000 12 30.32173 06 02 49.99 +19 28 07.4 19.6   704 – Lincoln Laboratory ETS, New Mexico MPS 24245
2000 12 30.33671 06 02 49.15 +19 28 11.5 19.4   704 – Lincoln Laboratory ETS, New Mexico MPS 24245
2001 01 03.24068 05 58 53.13 +19 48 58.3 19.5   704 – Lincoln Laboratory ETS, New Mexico MPS 24245
2001 01 03.25625 05 58 52.17 +19 49 02.7 19.6   704 – Lincoln Laboratory ETS, New Mexico MPS 24245
2001 01 03.27095 05 58 51.29 +19 49 07.3 20.1   704 – Lincoln Laboratory ETS, New Mexico MPS 24245
2001 01 03.29647 05 58 49.71 +19 49 15.2 19.2   704 – Lincoln Laboratory ETS, New Mexico MPS 24245
2004 09 14.39805 03 58 56.45 +03 38 17.2 19.6 R 699 – Lowell Observatory-LONEOS MPS 120560
2004 09 14.41509 03 58 57.00 +03 38 16.6   699 – Lowell Observatory-LONEOS MPS 120560
2004 09 14.43219 03 58 57.54 +03 38 12.3   699 – Lowell Observatory-LONEOS MPS 120560
2004 09 14.44925 03 58 58.15 +03 38 10.7   699 – Lowell Observatory-LONEOS MPS 120560
2004 10 09.34393 04 03 52.58 +02 19 23.0 18.9 R 699 – Lowell Observatory-LONEOS MPS 116792
2004 10 09.35933 04 03 52.33 +02 19 19.5   699 – Lowell Observatory-LONEOS MPS 116792
2004 10 09.37474 04 03 52.15 +02 19 16.7   699 – Lowell Observatory-LONEOS MPS 116792
2004 10 09.39017 04 03 51.84 +02 19 13.8   699 – Lowell Observatory-LONEOS MPS 116792
2004 10 12.37508 04 03 03.95 +02 09 23.5 20.4 R 683 – Goodricke-Pigott Observatory, Tucson MPS 116792
2004 10 12.38845 04 03 03.63 +02 09 23.1 20.9 R 683 – Goodricke-Pigott Observatory, Tucson MPS 116792
2004 10 12.40183 04 03 03.38 +02 09 20.2 20.6 R 683 – Goodricke-Pigott Observatory, Tucson MPS 116792
2004 10 13.37212 04 02 43.83 +02 06 12.8 20.4 R 683 – Goodricke-Pigott Observatory, Tucson MPS 116792
2004 10 13.38550 04 02 43.57 +02 06 09.1 20.7 R 683 – Goodricke-Pigott Observatory, Tucson MPS 116792
2004 10 13.39888 04 02 43.28 +02 06 07.6 20.4 R 683 – Goodricke-Pigott Observatory, Tucson MPS 116792
2004 10 18.32938 04 00 35.74 +01 51 06.0 19.0   704 – Lincoln Laboratory ETS, New Mexico MPS 117706
2004 10 18.34097 04 00 35.37 +01 51 04.5 19.5   704 – Lincoln Laboratory ETS, New Mexico MPS 117706
2004 10 18.35254 04 00 34.95 +01 51 02.6 19.3   704 – Lincoln Laboratory ETS, New Mexico MPS 117706
2004 10 18.35698 04 00 34.86 +01 51 01.5 20.5 R 683 – Goodricke-Pigott Observatory, Tucson MPS 117706
2004 10 18.36407 04 00 34.57 +01 51 00.6 19.3   704 – Lincoln Laboratory ETS, New Mexico MPS 117706
2004 10 18.37036 04 00 34.43 +01 51 00.0 20.4 R 683 – Goodricke-Pigott Observatory, Tucson MPS 117706
2004 10 18.38374 04 00 33.98 +01 50 58.0 20.1 R 683 – Goodricke-Pigott Observatory, Tucson MPS 117706
2004 10 23.29861 03 57 41.86 +01 38 01.5 19.0 V 291 – LPL/Spacewatch II MPS 118511
2004 10 23.30439 03 57 41.63 +01 38 00.6 19.0 V 291 – LPL/Spacewatch II MPS 118511
2004 10 23.31040 03 57 41.38 +01 37 59.7 19.0 V 291 – LPL/Spacewatch II MPS 118511
2004 10 24.34950 03 56 59.57 +01 35 34.4 18.5 R 699 – Lowell Observatory-LONEOS MPS 118511
2004 10 24.35922 03 56 59.12 +01 35 33.7   699 – Lowell Observatory-LONEOS MPS 118511
2004 10 24.36895 03 56 58.82 +01 35 32.4   699 – Lowell Observatory-LONEOS MPS 118511
2004 10 24.37869 03 56 58.35 +01 35 31.1   699 – Lowell Observatory-LONEOS MPS 118511
2004 11 05.43874 03 47 03.96 +01 18 34.6 18.3   644 – Palomar Mountain/NEAT MPS 119304
2004 11 05.45975 03 47 02.74 +01 18 34.2 18.3   644 – Palomar Mountain/NEAT MPS 119304
2004 11 05.48091 03 47 01.54 +01 18 33.8 18.7   644 – Palomar Mountain/NEAT MPS 119304
2004 11 06.25475 03 46 18.34 +01 18 17.2 18.5   704 – Lincoln Laboratory ETS, New Mexico MPS 119304
2004 11 06.26661 03 46 17.60 +01 18 17.4 18.7   704 – Lincoln Laboratory ETS, New Mexico MPS 119304
2004 11 06.27847 03 46 16.97 +01 18 17.0 18.7   704 – Lincoln Laboratory ETS, New Mexico MPS 119304
2004 11 06.29033 03 46 16.23 +01 18 16.9 18.9   704 – Lincoln Laboratory ETS, New Mexico MPS 119304
2004 11 06.30219 03 46 15.50 +01 18 16.3 18.2   704 – Lincoln Laboratory ETS, New Mexico MPS 119304
2004 11 12.25445 03 40 27.19 +01 20 05.1 18.4   704 – Lincoln Laboratory ETS, New Mexico MPS 119304
2004 11 12.26639 03 40 26.46 +01 20 05.7 18.7   704 – Lincoln Laboratory ETS, New Mexico MPS 119304
2004 11 12.27831 03 40 25.72 +01 20 06.2 18.7   704 – Lincoln Laboratory ETS, New Mexico MPS 119304
2004 11 12.29024 03 40 24.96 +01 20 07.1 18.5   704 – Lincoln Laboratory ETS, New Mexico MPS 119304
2004 12 01.21041 03 22 23.23 +02 15 09.7 20.2 R 683 – Goodricke-Pigott Observatory, Tucson MPS 120560
2004 12 01.22376 03 22 22.44 +02 15 11.8 19.4 R 683 – Goodricke-Pigott Observatory, Tucson MPS 120560
2004 12 01.23716 03 22 21.70 +02 15 15.4 19.1 R 683 – Goodricke-Pigott Observatory, Tucson MPS 120560
2004 12 02.20712 03 21 34.01 +02 20 02.8 19.5 R 683 – Goodricke-Pigott Observatory, Tucson MPS 120560
2004 12 02.22047 03 21 33.25 +02 20 07.5 19.7 R 683 – Goodricke-Pigott Observatory, Tucson MPS 120560
2004 12 02.23387 03 21 32.74 +02 20 12.9 20.4 R 683 – Goodricke-Pigott Observatory, Tucson MPS 120560
2004 12 02.55257 03 21 16.99 +02 21 55.7 18.2 R E12 – Siding Spring Survey MPS 120560
2004 12 02.56301 03 21 16.57 +02 21 59.5 18.3 R E12 – Siding Spring Survey MPS 120560
2004 12 02.57344 03 21 16.02 +02 22 03.4 19.0 R E12 – Siding Spring Survey MPS 120560
2004 12 02.58440 03 21 15.45 +02 22 07.5 18.2 R E12 – Siding Spring Survey MPS 120560
2004 12 04.27408 03 19 55.82 +02 30 55.3 18.6 R 699 – Lowell Observatory-LONEOS MPS 122716
2004 12 04.28626 03 19 55.26 +02 30 58.9   699 – Lowell Observatory-LONEOS MPS 122716
2004 12 04.29840 03 19 54.63 +02 31 03.8   699 – Lowell Observatory-LONEOS MPS 122716
2004 12 04.31056 03 19 54.08 +02 31 07.0   699 – Lowell Observatory-LONEOS MPS 122716
2004 12 07.19632 03 17 47.31 +02 47 33.1 18.6   704 – Lincoln Laboratory ETS, New Mexico MPS 121178
2004 12 07.20909 03 17 46.77 +02 47 39.6 19.1   704 – Lincoln Laboratory ETS, New Mexico MPS 121178
2004 12 07.22187 03 17 46.11 +02 47 43.6 19.5   704 – Lincoln Laboratory ETS, New Mexico MPS 121178
2004 12 07.24763 03 17 45.03 +02 47 51.6 18.9   704 – Lincoln Laboratory ETS, New Mexico MPS 121178
2004 12 14.264637 03 13 30.295 +03 33 48.03 19.15 V 645 – Apache Point-Sloan Digital Sky Survey MPS 390251
2004 12 14.268109 03 13 30.183 +03 33 49.46 19.77   645 – Apache Point-Sloan Digital Sky Survey MPS 390251
2005 01 13.21212 03 11 34.20 +07 51 30.3 19.4 R 703 – Catalina Sky Survey MPS 124105
2005 01 13.22207 03 11 34.35 +07 51 35.7 19.0 R 703 – Catalina Sky Survey MPS 124105
2005 01 13.23197 03 11 34.55 +07 51 41.2 19.7 R 703 – Catalina Sky Survey MPS 124105
2005 01 13.24181 03 11 34.73 +07 51 47.0 19.2 R 703 – Catalina Sky Survey MPS 124105
2007 04 25.29252 15 14 21.94 -00 48 05.1 19.9 V G96 – Mt. Lemmon Survey MPS 208073
2007 04 25.29835 15 14 21.69 -00 48 03.6 19.7 V G96 – Mt. Lemmon Survey MPS 208073
2007 04 25.30413 15 14 21.37 -00 48 02.6 19.8 V G96 – Mt. Lemmon Survey MPS 208073
2007 04 25.30988 15 14 21.08 -00 48 01.3 19.8 V G96 – Mt. Lemmon Survey MPS 208073
2008 09 24.63208 00 13 41.19 -22 51 43.5 18.1 V E12 – Siding Spring Survey MPS 256677
2008 09 24.64630 00 13 40.51 -22 51 48.0 18.4 V E12 – Siding Spring Survey MPS 256677
